Regional Weather Roundup
Issued by NWS

Home | Current Version | Previous Version | Text Only | Print | Product List | Glossary Off
Versions: 1 2 3 4 5 6 7 8 9 10 11 12 13 14 15 16 17 18 19 20 21 22 23 24 25 26 27 28

000
ASUS45 KCYS 291610
RWRWY

WYOMING REGIONAL WEATHER ROUNDUP
NATIONAL WEATHER SERVICE CHEYENNE WY
1000 AM MDT WED OCT 29 2014

NOTE:  "FAIR" INDICATES FEW OR NO CLOUDS BELOW 12,000 FEET
WITH NO SIGNIFICANT WEATHER AND/OR OBSTRUCTIONS TO VISIBILITY.

WYZ001-291700-
YELLOWSTONE NATIONAL PARK

CITY           SKY/WX    TMP DP  RH WIND       PRES   REMARKS
LK YELLOWSTONE   N/A     35  23  61 VRB5      30.25F WCI  31
W YELLOWSTONE  NOT AVBL

$$
WYZ002>013-054>058-071-098>099-291700-
NORTHERN WYOMING

CITY           SKY/WX    TMP DP  RH WIND       PRES   REMARKS
JACKSON        CLOUDY    30  27  86 VRB6      30.28R WCI  24
CODY           MOSUNNY   52  27  37 W15G24    30.09S
GREYBULL       PTSUNNY   33  17  51 S5        30.12S WCI  29
WORLAND        PTSUNNY   37  16  42 SE3       30.13R
SHERIDAN       CLOUDY    51  26  37 CALM      30.03R
BUFFALO          N/A     57  20  23 N5        30.05R
GILLETTE       MOSUNNY   53  20  27 SW14      30.01S
HULETT         FAIR      46  23  39 W5        30.01F
NEWCASTLE      FAIR      45  23  42 S3        30.07

$$
WYZ014>020-022>026-101>103-291700-
CENTRAL WYOMING

CITY           SKY/WX    TMP DP  RH WIND       PRES   REMARKS
BIG PINEY      PTSUNNY   31  16  54 CALM      30.31R
PINEDALE       CLOUDY    32  21  64 W6        30.31  WCI  26
DUBOIS         FAIR      41  25  52 NW14G26   30.20R
LANDER         SUNNY     46  16  30 W8        30.14S
RIVERTON       SUNNY     41  14  33 SW7       30.16R
CASPER         SUNNY     49  12  22 SW29G36   30.12F
DOUGLAS        MOSUNNY   40  23  50 NW3       30.09S

$$
WYZ021-027>030-104>119-291700-
SOUTHERN WYOMING

CITY           SKY/WX    TMP DP  RH WIND       PRES   REMARKS
EVANSTON       SUNNY     40  11  30 SW15      30.33S WCI  32
KEMMERER       MOSUNNY   37  14  38 SW3       30.33
FORT BRIDGER   FAIR      46  18  32 W10       30.35S
ROCK SPRINGS   NOT AVBL
RAWLINS        SUNNY     47  11  23 SW25G33   30.25F
SARATOGA       FAIR      46  18  31 S8        30.29S
LARAMIE        SUNNY     50  18  28 W18G25    30.24R
CHEYENNE       SUNNY     56  16  20 W22G32    30.17S
TORRINGTON     SUNNY     37  27  67 SE3       30.09F
PINE BLUFFS    FAIR      48  30  49 S7        30.16S

$$



USA.gov is the U.S. government's official web portal to all federal, state and local government web resources and services.